BXS2421 OOKB-OMAD

Flight info

Callsign BXS2421
Flight time 0h 42m
Altitude 28000
Route ITLAP L519 IVOXI N571 TUDIS DCT EMERU
Aircraft TBM8/L-SDFGRWY/S

Departure

Time 2026-04-16 17:58
Airport Khasab Airport (OOKB)

Arrival

Time 2026-04-16 18:40
Airport Al Bateen Executive Airport (OMAD)
Time Latitude Longitude Altitude Speed Heading
2026-04-16 17:58 26.05060 56.09936 4698 ft 189 kts 228°
2026-04-16 17:58 26.04143 56.08878 5009 ft 191 kts 228°
2026-04-16 17:58 26.03221 56.07796 5316 ft 192 kts 229°
2026-04-16 17:58 26.02286 56.06712 5634 ft 192 kts 227°
2026-04-16 17:59 26.01371 56.05655 5941 ft 192 kts 227°
2026-04-16 17:59 26.00445 56.04577 6264 ft 193 kts 227°
2026-04-16 17:59 25.99513 56.03497 6561 ft 194 kts 227°
2026-04-16 17:59 25.98579 56.02410 6864 ft 195 kts 227°
2026-04-16 18:00 25.97642 56.01323 7169 ft 195 kts 227°
2026-04-16 18:00 25.96700 56.00229 7477 ft 196 kts 227°
2026-04-16 18:00 25.95757 55.99136 7787 ft 196 kts 227°
2026-04-16 18:00 25.94809 55.98038 8100 ft 197 kts 227°
2026-04-16 18:01 25.93862 55.96938 8417 ft 197 kts 227°
2026-04-16 18:01 25.92910 55.95836 8740 ft 198 kts 227°
2026-04-16 18:01 25.91956 55.94731 9056 ft 198 kts 227°
2026-04-16 18:01 25.91000 55.93623 9377 ft 199 kts 227°
2026-04-16 18:02 25.90042 55.92513 9707 ft 199 kts 227°
2026-04-16 18:02 25.89088 55.91406 10006 ft 193 kts 228°
2026-04-16 18:02 25.88204 55.90370 10297 ft 181 kts 228°
2026-04-16 18:02 25.87355 55.89392 10589 ft 171 kts 228°
2026-04-16 18:03 25.86547 55.88468 10881 ft 163 kts 227°
2026-04-16 18:03 25.85763 55.87566 11104 ft 161 kts 228°
2026-04-16 18:03 25.84960 55.86651 11346 ft 169 kts 228°
2026-04-16 18:03 25.84114 55.85699 11595 ft 177 kts 227°
2026-04-16 18:04 25.83214 55.84716 11842 ft 184 kts 226°
2026-04-16 18:04 25.82269 55.83715 12099 ft 192 kts 226°
2026-04-16 18:04 25.81276 55.82684 12358 ft 198 kts 224°
2026-04-16 18:04 25.80219 55.81660 12615 ft 206 kts 215°
2026-04-16 18:05 25.78836 55.81181 12885 ft 213 kts 189°
2026-04-16 18:05 25.77378 55.80913 13139 ft 216 kts 198°
2026-04-16 18:05 25.75984 55.80280 13395 ft 218 kts 209°
2026-04-16 18:05 25.74631 55.79487 13659 ft 221 kts 209°
2026-04-16 18:06 25.73240 55.78722 13892 ft 224 kts 208°
2026-04-16 18:06 25.71827 55.77972 14122 ft 226 kts 208°
2026-04-16 18:06 25.70401 55.77215 14354 ft 228 kts 208°
2026-04-16 18:06 25.68967 55.76446 14589 ft 229 kts 208°
2026-04-16 18:07 25.67527 55.75676 14829 ft 230 kts 208°
2026-04-16 18:07 25.66082 55.74905 15067 ft 231 kts 208°
2026-04-16 18:07 25.64666 55.74146 15301 ft 231 kts 208°
2026-04-16 18:07 25.63214 55.73369 15545 ft 232 kts 208°
2026-04-16 18:08 25.61756 55.72590 15787 ft 232 kts 208°
2026-04-16 18:08 25.60296 55.71811 16029 ft 232 kts 208°
2026-04-16 18:08 25.58910 55.70899 16263 ft 231 kts 216°
2026-04-16 18:08 25.57571 55.69908 16511 ft 231 kts 216°
2026-04-16 18:09 25.56221 55.68933 16761 ft 232 kts 216°
2026-04-16 18:09 25.54872 55.67967 17014 ft 231 kts 216°
2026-04-16 18:09 25.53568 55.67029 17255 ft 231 kts 216°
2026-04-16 18:09 25.52219 55.66056 17509 ft 232 kts 216°
2026-04-16 18:10 25.50864 55.65081 17768 ft 231 kts 216°
2026-04-16 18:10 25.49532 55.64122 18017 ft 231 kts 216°
2026-04-16 18:10 25.48165 55.63139 18269 ft 231 kts 216°
2026-04-16 18:10 25.46840 55.62186 18492 ft 230 kts 216°
2026-04-16 18:11 25.45494 55.61218 18725 ft 230 kts 216°
2026-04-16 18:11 25.44153 55.60253 18953 ft 229 kts 216°
2026-04-16 18:11 25.42815 55.59290 19180 ft 229 kts 216°
2026-04-16 18:11 25.41477 55.58329 19412 ft 229 kts 216°
2026-04-16 18:12 25.40139 55.57368 19648 ft 229 kts 216°
2026-04-16 18:12 25.38847 55.56439 19863 ft 227 kts 216°
2026-04-16 18:12 25.37500 55.55470 19903 ft 235 kts 216°
2026-04-16 18:12 25.36104 55.54463 19907 ft 243 kts 216°
2026-04-16 18:13 25.34664 55.53429 19909 ft 250 kts 216°
2026-04-16 18:13 25.33205 55.52383 19908 ft 256 kts 215°
2026-04-16 18:13 25.31772 55.51204 19907 ft 259 kts 221°
2026-04-16 18:13 25.30434 55.50035 19908 ft 263 kts 220°
2026-04-16 18:14 25.28975 55.48787 19909 ft 266 kts 220°
2026-04-16 18:14 25.27492 55.47522 19910 ft 269 kts 220°
2026-04-16 18:14 25.26011 55.46251 19911 ft 271 kts 220°
2026-04-16 18:14 25.24521 55.44971 19914 ft 272 kts 220°
2026-04-16 18:15 25.23020 55.43682 19915 ft 273 kts 221°
2026-04-16 18:15 25.21745 55.42144 19903 ft 271 kts 238°
2026-04-16 18:15 25.20911 55.40285 19897 ft 271 kts 252°
2026-04-16 18:15 25.20532 55.38247 19897 ft 271 kts 262°
2026-04-16 18:16 25.20235 55.36192 19894 ft 272 kts 261°
2026-04-16 18:16 25.19889 55.33939 19897 ft 272 kts 261°
2026-04-16 18:16 25.19581 55.31876 19893 ft 272 kts 261°
2026-04-16 18:16 25.19351 55.30318 19895 ft 273 kts 261°
2026-04-16 18:17 25.19042 55.28241 19897 ft 273 kts 261°
2026-04-16 18:17 25.18731 55.26169 19895 ft 274 kts 261°
2026-04-16 18:17 25.18422 55.24100 19899 ft 274 kts 261°
2026-04-16 18:17 25.18111 55.22018 19908 ft 275 kts 261°
2026-04-16 18:18 25.17800 55.19940 19896 ft 274 kts 261°
2026-04-16 18:18 25.17419 55.17878 19901 ft 275 kts 252°
2026-04-16 18:18 25.16554 55.15992 19908 ft 276 kts 237°
2026-04-16 18:18 25.15255 55.14436 19908 ft 278 kts 221°
2026-04-16 18:19 25.13592 55.13326 19910 ft 282 kts 205°
2026-04-16 18:19 25.11691 55.12733 19914 ft 285 kts 195°
2026-04-16 18:19 25.09754 55.12264 19911 ft 285 kts 195°
2026-04-16 18:19 25.07820 55.11779 19911 ft 285 kts 195°
2026-04-16 18:20 25.05898 55.11348 19910 ft 284 kts 192°
2026-04-16 18:20 25.03970 55.10883 19899 ft 284 kts 196°
2026-04-16 18:20 25.02061 55.10338 19901 ft 284 kts 197°
2026-04-16 18:20 25.00142 55.09829 19896 ft 284 kts 195°
2026-04-16 18:21 24.98202 55.09383 19901 ft 284 kts 194°
2026-04-16 18:21 24.96282 55.08927 19907 ft 283 kts 195°
2026-04-16 18:21 24.94363 55.08443 19917 ft 283 kts 195°
2026-04-16 18:21 24.92437 55.07960 19921 ft 283 kts 195°
2026-04-16 18:22 24.90509 55.07486 19912 ft 284 kts 195°
2026-04-16 18:22 24.88527 55.06998 19913 ft 284 kts 195°
2026-04-16 18:22 24.86593 55.06519 19904 ft 284 kts 195°
2026-04-16 18:22 24.84664 55.06047 19911 ft 284 kts 195°
2026-04-16 18:23 24.82733 55.05566 19911 ft 284 kts 195°
2026-04-16 18:23 24.80828 55.05008 19908 ft 281 kts 204°
2026-04-16 18:23 24.79116 55.03978 19908 ft 280 kts 214°
2026-04-16 18:23 24.77471 55.02890 19911 ft 280 kts 213°
2026-04-16 18:24 24.75793 55.01808 19912 ft 280 kts 213°
2026-04-16 18:24 24.74121 55.00717 19911 ft 279 kts 213°
2026-04-16 18:24 24.72470 54.99631 19908 ft 280 kts 213°
2026-04-16 18:24 24.70790 54.98530 19781 ft 285 kts 213°
2026-04-16 18:25 24.69057 54.97395 19478 ft 294 kts 213°
2026-04-16 18:25 24.67274 54.96226 19179 ft 301 kts 213°
2026-04-16 18:25 24.65564 54.95107 18901 ft 306 kts 213°
2026-04-16 18:25 24.63728 54.93908 18608 ft 309 kts 213°
2026-04-16 18:26 24.61861 54.92690 18205 ft 315 kts 213°
2026-04-16 18:26 24.59958 54.91452 17694 ft 320 kts 212°
2026-04-16 18:26 24.57881 54.90499 17179 ft 327 kts 197°
2026-04-16 18:26 24.55611 54.90144 16669 ft 332 kts 183°
2026-04-16 18:27 24.53299 54.90420 16179 ft 336 kts 169°
2026-04-16 18:27 24.51100 54.91324 15696 ft 339 kts 154°
2026-04-16 18:27 24.49139 54.92752 15219 ft 339 kts 145°
2026-04-16 18:27 24.47244 54.94231 14760 ft 337 kts 146°
2026-04-16 18:28 24.45328 54.95685 14300 ft 335 kts 146°
2026-04-16 18:28 24.43390 54.97179 13840 ft 333 kts 146°
2026-04-16 18:28 24.41527 54.98631 13348 ft 331 kts 146°
2026-04-16 18:28 24.39646 55.00084 12845 ft 329 kts 146°
2026-04-16 18:29 24.37730 55.01434 12337 ft 325 kts 155°
2026-04-16 18:29 24.35559 55.02016 11839 ft 320 kts 180°
2026-04-16 18:29 24.33394 55.01585 11341 ft 315 kts 204°
2026-04-16 18:29 24.31615 55.00253 10861 ft 310 kts 227°
2026-04-16 18:30 24.30500 54.98263 10384 ft 306 kts 251°
2026-04-16 18:30 24.30124 54.95987 9929 ft 303 kts 267°
2026-04-16 18:30 24.30231 54.93714 9438 ft 301 kts 276°
2026-04-16 18:30 24.30400 54.91438 8941 ft 298 kts 272°
2026-04-16 18:31 24.30365 54.89476 8511 ft 295 kts 266°
2026-04-16 18:31 24.30187 54.87271 8028 ft 291 kts 266°
2026-04-16 18:31 24.30082 54.85069 7548 ft 287 kts 269°
2026-04-16 18:31 24.30049 54.83135 7130 ft 284 kts 270°
2026-04-16 18:32 24.29976 54.80955 6658 ft 281 kts 269°
2026-04-16 18:32 24.29876 54.78818 6185 ft 278 kts 269°
2026-04-16 18:32 24.29795 54.76739 5701 ft 276 kts 269°
2026-04-16 18:32 24.29725 54.74644 5213 ft 273 kts 269°
2026-04-16 18:33 24.29640 54.72569 4735 ft 271 kts 269°
2026-04-16 18:33 24.29558 54.70522 4242 ft 268 kts 270°
2026-04-16 18:33 24.29480 54.68493 3756 ft 265 kts 270°
2026-04-16 18:33 24.29409 54.66482 3266 ft 262 kts 271°
2026-04-16 18:34 24.29347 54.64493 3007 ft 251 kts 271°
2026-04-16 18:34 24.29279 54.62651 3000 ft 238 kts 270°
2026-04-16 18:34 24.29170 54.60874 2996 ft 230 kts 269°
2026-04-16 18:34 24.29368 54.59324 2977 ft 186 kts 306°
2026-04-16 18:35 24.30391 54.58731 2074 ft 172 kts 348°
2026-04-16 18:35 24.31587 54.58677 1326 ft 166 kts 354°
2026-04-16 18:35 24.32592 54.58670 1424 ft 126 kts 355°
2026-04-16 18:35 24.33386 54.58662 1504 ft 104 kts 351°
2026-04-16 18:36 24.34049 54.58619 1609 ft 88 kts 341°
2026-04-16 18:36 24.34663 54.58448 1554 ft 97 kts 332°
2026-04-16 18:36 24.35270 54.58130 1564 ft 95 kts 327°
2026-04-16 18:36 24.35897 54.57736 1460 ft 113 kts 321°
2026-04-16 18:37 24.36520 54.57100 1345 ft 129 kts 308°
2026-04-16 18:37 24.36987 54.56208 1231 ft 142 kts 296°
2026-04-16 18:37 24.37376 54.55181 1142 ft 148 kts 291°
2026-04-16 18:37 24.37859 54.54178 1132 ft 148 kts 299°
2026-04-16 18:38 24.38331 54.53142 965 ft 156 kts 294°
2026-04-16 18:38 24.38891 54.52101 879 ft 156 kts 302°
2026-04-16 18:38 24.39450 54.51132 869 ft 129 kts 302°
2026-04-16 18:38 24.39903 54.50486 691 ft 91 kts 295°
2026-04-16 18:39 24.40184 54.49882 529 ft 85 kts 292°
2026-04-16 18:39 24.40461 54.49315 450 ft 84 kts 297°
2026-04-16 18:39 24.40803 54.48747 329 ft 88 kts 300°
2026-04-16 18:39 24.41038 54.48394 268 ft 86 kts 301°
2026-04-16 18:40 24.41388 54.47862 200 ft 86 kts 303°
2026-04-16 18:40 24.41758 54.47313 62 ft 92 kts 306°
2026-04-16 18:40 24.42128 54.46786 15 ft 73 kts 302°
2026-04-16 18:40 24.42331 54.46501 19 ft 38 kts 310°
2026-04-16 18:41 24.42509 54.46271 21 ft 28 kts 309°
2026-04-16 18:41 24.42592 54.46149 23 ft 24 kts 298°
2026-04-16 18:41 24.42666 54.45874 18 ft 37 kts 278°
2026-04-16 18:41 24.42644 54.45716 18 ft 8 kts 235°
2026-04-16 18:42 24.42609 54.45677 18 ft 0 kts 217°